COSMOS 2251 DEB, 34053

Orbit data source: Space-Track

COSMOS 2251 DEB, 34053 is space debris in LEO originally from a launch on Wed, 16 Jun 1993 UTC launched from the Plesetsk Missile And Space Complex (PKMTR). The debris from Iridium 33, an American commercial communications satellite, has been tracked extensively since its accidental collision with the defunct Russian satellite Cosmos 2251 in 2009. This event, occurring at high speed in low Earth orbit (LEO), generated thousands of pieces of space debris, significantly increasing the risk of further collisions. The Iridium 33 debris cloud has impacted space traffic management and orbital debris mitigation strategies, making it a subject of ongoing study in space situational awareness.

Loading next visibility...
Identifier
34053, 1993-036JQ
Orbit
LEO
Country
Flag of CISCIS
Related business
Manufacturer
Unknown
Mission
Spacecraft
Bus & Motor
Unknown
Mass
Unknown
Launch date (UTC)
1993-06-16 (32 years ago)
Launch vehicle
Unknown
Launch site
Plesetsk Missile And Space Complex (PKMTR)
Object type
Payload
Rocket body
Debris
Shape & HBR
Unknown shape, 0.1 m
Radar Cross Section
Small (<0.1 m²)

Expand to show TLE details & history
Last TLE update: 11 hours ago

TLE from 11 hours ago
0 COSMOS 2251 DEB
1 34053U 93036JQ  25304.12608231  .00000491  00000-0  47040-3 0  9995
2 34053  73.8435 310.8346 0421026 106.7102 258.0644 13.49074625821094
Epoch: 2025-10-31T03:01Z
TLE epoch observation values (Epoch: 2025-10-31T03:01:33.511Z)
Latitude
-0.00005°
Longitude
-134.23004°
Altitude
1,155.555 km
Speed
7.238 km/s
True Right ascension
20h 43m 20s
True Declination
0° 00' 00"
Sunlit
Object was in daylight at epoch
Visualization orbit readout
Latitude
Unknown
Longitude
Unknown
Altitude
Unknown
Speed
Unknown
Apparent Right ascension
Unknown
Apparent Declination
Unknown
Sunlit
N/A
Visualization observer readout
Local Sidereal Time
09:26:56
Azimuth
Unknown
Elevation
Unknown
Doppler factor
Unknown
Orbital elements
Apogee altitude
1,387.125 km
Perigee altitude
759.667 km
Semi-major axis
7,451.533 km
Eccentricity
0.0421
Inclination
73.8435°
RAAN
310.8346°
Arg. of periapsis
106.7102°
True anomaly
253.4001°
Mean anomaly
258.0644°
Eccentric anomaly
255.72657°
Mean motion
3.37423 °/min
Orbital period
106.69 mins
BSTAR
0.0004704

Documentation

Showing up to 5 results
|